Visibility
15.0 15.0 15.0 15.0 15.0 15.0 15.0 15.0 15.0 15.0 15.0 15.0 15.0 15.0 15.0 15.0 15.0 15.0 15.0 15.0 15.0 15.0 15.0 15.0 15.0 15.0 15.0 15.0 15.0 15.0 15.0 15.0 15.0 15.0 15.0 15.0 15.0 15.0 15.0 15.0 15.0 15.0 15.0
15.0 15.0 15.0 15.0 15.0 15.0 15.0 15.0 15.0 15.0 15.0 15.0 15.0 15.0 15.0 15.0 15.0 15.0 15.0 15.0 15.0 15.0 15.0 15.0 15.0 15.0 15.0 15.0 15.0 15.0 15.0 15.0 15.0 15.0 15.0 15.0 15.0 15.0 15.0 15.0 15.0 15.0 15.0
15.0 15.0 15.0 15.0 15.0 15.0 15.0 15.0 15.0 15.0 15.0 15.0 15.0 15.0 15.0 15.0 15.0 15.0 15.0 15.0 15.0 15.0 15.0 15.0 15.0 15.0 15.0 15.0 15.0 15.0 15.0 15.0 15.0 15.0 15.0 15.0 15.0 15.0 15.0 15.0 15.0 15.0 15.0
15.0 15.0 15.0 15.0 15.0 15.0 15.0 15.0 15.0 15.0 15.0 15.0 15.0 15.0 15.0 15.0 10.0 5.1 6.4 15.0 15.0 12.3 15.0 15.0 15.0 15.0 15.0 15.0 15.0 15.0 15.0 15.0 15.0 15.0 15.0 15.0 15.0 15.0 15.0 15.0 15.0 15.0 15.0
15.0 15.0 15.0 15.0 15.0 15.0 15.0 15.0 15.0 15.0 15.0 15.0 15.0 15.0 6.9 6.6 10.9 2.1 12.7 15.0 11.8 10.9 15.0 15.0 15.0 15.0 15.0 15.0 15.0 15.0 15.0 15.0 15.0 15.0 15.0 15.0 15.0 15.0 15.0 15.0 15.0 15.0 15.0
15.0 15.0 15.0 15.0 15.0 15.0 15.0 15.0 15.0 15.0 15.0 15.0 14.9 4.1 9.2 15.0 9.6 1.8 15.0 12.3 3.8 15.0 15.0 15.0 15.0 15.0 15.0 15.0 15.0 15.0 15.0 15.0 15.0 4.2 15.0 15.0 15.0 15.0 15.0 15.0 15.0 14.9 7.9
15.0 15.0 15.0 15.0 15.0 15.0 15.0 15.0 15.0 15.0 6.3 1.8 2.5 6.4 5.7 14.0 1.5 2.8 2.1 7.4 7.2 15.0 15.0 15.0 15.0 15.0 15.0 15.0 15.0 15.0 15.0 15.0 15.0 15.0 15.0 15.0 15.0 15.0 15.0 15.0 13.6 2.2 13.9
15.0 15.0 15.0 15.0 15.0 15.0 15.0 15.0 15.0 15.0 14.2 5.6 3.0 2.1 2.0 5.0 1.0 4.4 9.1 2.3 13.6 15.0 15.0 15.0 15.0 15.0 15.0 15.0 15.0 15.0 15.0 15.0 15.0 15.0 15.0 15.0 15.0 15.0 15.0 11.3 0.5 12.4 15.0
15.0 15.0 15.0 15.0 15.0 15.0 15.0 15.0 14.9 15.0 9.5 4.0 2.9 1.8 3.9 5.4 1.5 7.3 6.7 10.7 15.0 15.0 15.0 15.0 15.0 15.0 15.0 15.0 15.0 15.0 15.0 15.0 15.0 15.0 15.0 15.0 13.1 1.6 0.1 0.1 1.5 5.1 15.0
15.0 15.0 15.0 15.0 15.0 15.0 15.0 15.0 15.0 5.8 3.6 2.1 1.2 5.5 14.9 1.4 5.7 2.9 7.0 1.1 15.0 15.0 15.0 15.0 15.0 15.0 15.0 15.0 15.0 15.0 15.0 15.0 15.0 15.0 15.0 15.0 15.0 15.0 6.3 0.1 1.1 2.1 12.8
15.0 15.0 15.0 15.0 15.0 15.0 15.0 5.6 1.3 1.0 1.1 1.7 2.7 3.8 0.9 1.2 0.4 2.5 11.5 0.1 15.0 15.0 15.0 15.0 15.0 15.0 15.0 15.0 15.0 15.0 15.0 15.0 11.2 15.0 14.1 3.9 2.9 1.1 0.9 0.7 15.0 15.0 9.9
15.0 15.0 15.0 15.0 15.0 15.0 3.0 0.9 1.0 1.2 1.0 0.9 1.2 0.9 1.4 1.5 0.3 0.2 3.5 0.1 15.0 15.0 15.0 15.0 15.0 15.0 15.0 15.0 15.0 15.0 15.0 15.0 15.0 0.1 0.2 0.6 1.1 0.3 0.3 0.3 15.0 15.0 15.0
15.0 15.0 15.0 15.0 4.2 1.2 1.3 1.3 1.2 1.1 1.2 2.0 0.6 0.2 1.4 2.8 0.4 0.1 2.0 15.0 15.0 15.0 15.0 15.0 15.0 15.0 15.0 15.0 14.1 14.5 14.9 0.2 0.1 0.1 0.2 1.5 13.7 13.6 0.3 1.9 15.0 15.0 15.0
15.0 15.0 4.3 1.0 1.0 1.7 2.2 2.8 4.6 7.7 6.8 0.1 0.1 0.3 3.4 5.6 10.6 15.0 15.0 15.0 15.0 15.0 14.4 10.7 15.0 11.2 1.3 0.6 0.5 3.7 1.8 0.4 0.1 0.1 0.2 0.5 1.2 0.3 0.2 0.3 0.4 15.0 4.2
15.0 14.5 14.2 4.2 1.4 0.4 0.4 3.6 0.5 4.2 7.5 8.3 15.0 15.0 15.0 15.0 15.0 15.0 15.0 15.0 12.7 15.0 15.0 6.9 15.0 15.0 15.0 14.5 11.8 9.5 0.2 0.2 0.2 5.9 1.9 2.9 1.8 1.3 1.3 0.4 0.2 0.9 3.6
15.0 15.0 15.0 12.9 6.4 6.5 6.8 2.0 15.0 15.0 15.0 15.0 15.0 15.0 15.0 15.0 15.0 15.0 15.0 15.0 15.0 15.0 5.2 4.1 3.7 2.3 1.5 1.3 0.9 2.6 4.1 4.6 3.6 1.5 1.2 1.6 1.6 1.5 0.6 0.5 0.3 0.3 4.2
15.0 15.0 4.9 6.3 5.0 4.7 4.6 5.1 3.7 7.4 15.0 15.0 15.0 15.0 15.0 14.7 15.0 15.0 15.0 4.6 1.3 1.9 0.1 1.1 1.1 2.6 4.1 9.1 4.1 4.1 4.4 14.9 10.0 4.1 3.2 1.7 1.0 0.7 0.4 0.3 0.3 1.0 10.3
15.0 15.0 12.0 4.1 4.1 4.1 4.1 4.4 6.9 4.3 1.6 0.5 1.1 1.4 1.8 15.0 15.0 5.5 0.8 2.4 9.7 8.5 12.1 2.0 1.5 7.0 15.0 15.0 15.0 11.6 12.7 4.5 4.0 3.8 2.9 2.9 1.3 0.4 0.6 0.6 0.3 0.4 1.6
15.0 4.2 4.1 4.1 4.1 4.9 4.1 4.1 4.1 4.1 3.7 1.4 0.8 1.3 0.4 11.7 4.1 1.0 14.8 13.3 14.3 15.0 14.9 12.5 13.4 12.8 14.4 10.2 11.4 6.7 2.8 2.4 3.1 2.8 3.5 3.0 1.8 0.8 2.0 1.6 0.5 1.4 0.4
4.7 8.4 10.2 5.0 4.1 4.1 4.1 4.1 4.0 3.9 2.0 1.6 1.8 15.0 14.1 12.2 9.6 15.0 14.7 15.0 15.0 15.0 14.9 12.3 13.6 6.5 4.1 3.7 4.1 3.6 2.9 3.1 4.0 4.1 4.1 5.1 11.4 2.4 1.6 3.1 2.1 0.5 0.7
5.0 7.1 15.0 10.7 13.5 13.0 15.0 15.0 15.0 15.0 15.0 15.0 15.0 15.0 8.4 12.3 14.9 15.0 15.0 15.0 15.0 15.0 15.0 10.2 8.0 4.1 4.1 4.0 2.4 2.1 1.9 2.7 3.6 4.0 3.7 4.1 3.5 1.9 4.0 2.6 1.1 0.7 0.5
15.0 15.0 15.0 15.0 15.0 15.0 15.0 15.0 15.0 15.0 15.0 15.0 15.0 13.2 0.8 15.0 15.0 15.0 15.0 15.0 15.0 15.0 15.0 13.0 8.5 7.8 11.4 4.8 3.6 1.9 2.2 2.8 3.7 4.1 3.9 3.4 2.1 2.2 1.9 2.1 0.8 0.8 0.7
15.0 15.0 15.0 15.0 15.0 15.0 15.0 15.0 15.0 15.0 15.0 15.0 15.0 15.0 15.0 15.0 15.0 15.0 15.0 15.0 15.0 15.0 15.0 10.3 14.0 14.6 15.0 13.0 6.0 3.3 2.4 3.8 11.0 6.1 2.2 1.8 1.8 1.5 1.0 1.3 0.9 1.0 12.5
15.0 15.0 15.0 15.0 15.0 15.0 15.0 14.5 15.0 15.0 15.0 15.0 15.0 15.0 15.0 15.0 15.0 15.0 15.0 14.5 14.3 15.0 14.6 8.3 5.2 11.2 15.0 15.0 8.3 7.3 4.0 8.0 3.4 3.1 1.5 1.2 1.4 2.1 0.7 0.7 1.3 15.0 15.0
15.0 15.0 15.0 15.0 14.9 15.0 15.0 15.0 15.0 15.0 15.0 15.0 15.0 11.3 15.0 15.0 15.0 15.0 15.0 15.0 15.0 8.8 15.0 15.0 15.0 15.0 15.0 15.0 15.0 10.1 11.9 2.6 3.4 3.1 2.2 2.0 1.8 3.1 1.7 1.6 12.0 11.1 8.3
15.0 15.0 11.9 15.0 12.5 11.8 14.4 15.0 15.0 15.0 15.0 15.0 15.0 15.0 15.0 15.0 15.0 15.0 15.0 12.5 15.0 15.0 15.0 15.0 15.0 15.0 15.0 15.0 15.0 11.1 10.5 3.5 9.0 11.2 15.0 5.8 4.1 5.2 5.1 4.0 4.1 5.2 15.0